Flag for Canada Weather past 2 weeks in Clarington, Ontario, Canada

32 °F

Scattered clouds.

Feels Like: 24 °F
Forecast: 27 / 38 °F
Wind: 9 mph from West

Location: Peterborough Airport

Current Time: Nov 28, 2015 at 2:27:13 PM

Latest Report: Nov 28, 2015 at 2:00 PM

Visibility: 9 mi

Pressure: 30.32 "Hg

Humidity: 75%

Dew point: 25 °F

Location of ClaringtonLocation

Historic Weather in Clarington — Graph


Clarington temperature yesterday

Maximum temperature yesterday: 57 °F (at 12:00 AM)
Minimum temperature yesterday: 34 °F (at 10:00 PM)
Average temperature yesterday: 49 °F

Past Weeks' High & Low Weather Summary

High73 °F (Nov 25, 4:00 PM)100% (Nov 14, 11:00 PM)30.66 "Hg (Nov 14, 11:00 PM)
Low16 °F (Nov 23, 5:00 AM)30% (Nov 16, 4:00 PM)29.54 "Hg (Nov 13, 1:00 PM)
Average39 °F81%30.18 "Hg
* Reported Nov 13 1:00 PM — Nov 28 1:00 PM, Clarington, Weather by CustomWeather, © 2015

Note: Actual official high and low records may vary slightly from our data, if they occured in-between our weather recording intervals... More about our weather records


Clarington weather history for previous 24 hours

Time TempWeatherWind HumidityBarometerVisibility
1:00 PM
Sat, Nov 28
30 °FOvercast.10 mph86%30.33 "Hg9 mi
12:00 PM30 °FOvercast.9 mph86%30.34 "Hg9 mi
11:00 AM28 °FOvercast.7 mph93%30.37 "Hg9 mi
10:00 AM28 °FOvercast.3 mph93%30.37 "Hg9 mi
9:00 AM28 °FOvercast.6 mph93%30.36 "Hg9 mi
8:00 AM28 °FOvercast.7 mph86%30.37 "Hg9 mi
7:00 AM28 °FOvercast.6 mph93%30.37 "Hg9 mi
6:00 AM30 °FOvercast.7 mph86%30.36 "Hg9 mi
5:00 AM30 °FOvercast.8 mph93%30.34 "Hg9 mi
4:00 AM32 °FOvercast.8 mph87%30.35 "Hg9 mi
3:00 AM32 °FMostly cloudy.8 mph87%30.35 "Hg9 mi
1:00 AM34 °FOvercast.5 mph87%30.33 "Hg9 mi
12:00 AM34 °FOvercast.7 mph87%30.34 "Hg9 mi
11:00 PM
Fri, Nov 27
34 °FOvercast.9 mph87%30.33 "Hg9 mi
10:46 PM34 °FMostly cloudy.9 mph87%30.32 "Hg9 mi
10:00 PM34 °FLight rain. Mostly cloudy.13 mph93%30.32 "Hg9 mi
9:00 PM36 °FLight rain. Mostly cloudy.10 mph93%30.30 "Hg9 mi
8:00 PM37 °FLight rain. Overcast.10 mph100%30.27 "Hg9 mi
7:00 PM39 °FLight rain. Mostly cloudy.12 mph93%30.26 "Hg9 mi
6:00 PM41 °FLight rain. Low clouds.15 mph93%30.23 "Hg7 mi
5:56 PM41 °FLight rain. Fog.14 mph93%30.22 "Hg6 mi
5:00 PM45 °FLight rain. Overcast.18 mph93%30.20 "Hg9 mi
4:48 PM45 °FLight rain. Fog.14 mph93%30.18 "Hg6 mi
4:00 PM46 °FLight rain. Fog.14 mph93%30.17 "Hg5 mi
3:57 PM46 °FLight rain. Fog.10 mph93%30.17 "Hg5 mi
3:01 PM48 °FMostly cloudy.10 mph94%30.15 "Hg9 mi
2:00 PM52 °FFog.10 mph94%30.12 "Hg5 mi
Weather by CustomWeather, © 2015

See weather overviewHow to use our weather pages